Preview of NWS' New Version of Forecast
This preview is not operational and should not be used for support decisions.

Regional Weather Roundup (RWR)

Issued by National Weather Service (NWS)

                            
000
ASPQ40 PGUM 200310
RWRPQ 
WEATHER ROUNDUP FOR THE MARIANAS AND MICRONESIA
NATIONAL WEATHER SERVICE TIYAN GU
100 PM CHST WED FEB 20 2019

GUZ001>004-200400-
MARIANA ISLANDS-
  
CITY           SKY/WX    TMP DP  RH WIND       PRES   REMARKS
GUAM AIRPORT   LGT RAIN  81  81 100 NE16      29.97F HX  91           
ANDERSEN AFB   DRIZZLE   77  72  83 NE21G31   29.97F                  
ROTA AIRPORT   PTSUNNY   81  72  74 NE16      29.97F                  
TINIAN AP      MOSUNNY  N/A N/A N/A E18       29.96F                  
SAIPAN AP      MOSUNNY   86  70  58 NE22G31   29.98F HX  90           

$$

PMZ161-200400-
REPUBLIC OF PALAU-
  
CITY           SKY/WX    TMP DP  RH WIND       PRES   REMARKS
KOROR AP       PTSUNNY   82  75  78 NE13G24   29.97F                  
KOROR WSO      NOT AVBL                                               

$$

PMZ171>174-200400-
FEDERATED STATES OF MICRONESIA-
  
CITY           SKY/WX    TMP DP  RH WIND       PRES   REMARKS
YAP AIRPORT    CLOUDY    86  77  74 NE12      29.95F HX  97           
CHUUK AP       CLOUDY    82  75  78 N17G25    29.69F                  
POHNPEI AP     CLOUDY    84  79  84 E7        29.73F HX  96           
POHNPEI WSO    CLOUDY    84  77  79 E10       29.77F HX  94           
KOSRAE AP      NOT AVBL                                               

$$

PMZ181-200400-
REPUBLIC OF THE MARSHALL ISLANDS-
  
CITY           SKY/WX    TMP DP  RH WIND       PRES   REMARKS
KWAJALEIN AP   SUNNY     88  73  62 E21       29.81F HX  96           
MAJURO AP      NOT AVBL                                               
MAJURO WSO     MOSUNNY   84  72  65 E20       29.78F                  

$$